Retour au catalogue

DELTA 1 DEB

ActifPO
NORAD 21493·DEBRIS·🇺🇸 United States

Lancé Jun 12, 1975 depuis Vandenberg Space Force Base

Loading…

Prochains Passages (prochaines 24 heures)

TLE

FraisSource: Space-Track

Époque: Sep 13, 2026, 16:21 UTC

1 21493U 75052FN  26256.68189475 -.00000685  00000-0 -26060-2 0  9994
2 21493  99.6619 336.7137 0718766 220.7286 303.0093 12.23701141563232

Suivez DELTA 1 DEB en temps réel avec AllMySat

Download on the App Store